Change the Weather History Date:

Monday, March 31, 2014

  Actual Average Record
Temperature  
Mean Temperature 48 °F 46 °F  
Max Temperature 60 °F 56 °F 85 °F (1998)
Min Temperature 36 °F 36 °F 19 °F (1923)
Degree Days  
Heating Degree Days 17 19  
Month to date heating degree days 917 742  
Since 1 July heating degree days 5227 4785  
Cooling Degree Days 0 0  
Month to date cooling degree days 0 0  
Year to date cooling degree days 0 0  
Moisture  
Dew Point 29 °F    
Average Humidity 55    
Maximum Humidity 82    
Minimum Humidity 28    
Precipitation  
Precipitation 0.02 in 0.14 in 1.50 in (1934)
Month to date precipitation 2.17 3.48  
Year to date precipitation 8.85 9.01  
Sea Level Pressure  
Sea Level Pressure 29.96 in    
Wind  
Wind Speed 16 mph (NNW)    
Max Wind Speed 28 mph    
Max Gust Speed 36 mph    
Visibility 10 miles    
Events Rain , Snow    
T = Trace of Precipitation, MM = Missing Value Source: NWS Daily Summary

Daily Weather History Graph

Daily Weather History Graph

Search for Another Location

Airport or City:

Trip Planner

Search our weather history database for the weather conditions in past years. The results will help you decide how hot, cold, wet, or windy it might be!

Date:

Astronomy

Mar. 31, 2014 Rise Set
Actual Time 6:49 AM EDT 7:27 PM EDT
Civil Twilight 6:21 AM EDT 7:54 PM EDT
Nautical Twilight 5:49 AM EDT 8:27 PM EDT
Astronomical Twilight 5:16 AM EDT 9:00 PM EDT
Moon 7:11 AM EDT (3/31) 8:43 PM EDT (3/31)
Length of Visible Light 13h 32m
Length of Day
12h 38m
New Moon, 1% of the Moon is Illuminated
Mar 31
New Moon
Apr 7
First Quarter
Apr 15
Full
Apr 22
Last Quarter
Apr 29
New

Hourly Weather History & Observations

Time (EDT) Temp. Windchill Dew Point Humidity Pressure Visibility Wind Dir Wind Speed Gust Speed Precip Events Conditions
12:54 AM 37.0 °F 28.1 °F 30.9 °F 79% 29.83 in 10.0 mi NNW 15.0 mph - 0.00 in   Overcast
1:54 AM 37.0 °F 28.9 °F 30.0 °F 76% 29.84 in 10.0 mi North 12.7 mph 20.7 mph 0.00 in Snow Light Snow
2:02 AM 37.0 °F 27.7 °F 30.0 °F 76% 29.82 in 9.0 mi NNW 16.1 mph 27.6 mph 0.00 in   Overcast
2:54 AM 37.9 °F 29.6 °F 30.0 °F 73% 29.86 in 10.0 mi NNW 13.8 mph 24.2 mph 0.00 in   Overcast
3:13 AM 37.0 °F 29.8 °F 30.0 °F 76% 29.84 in 10.0 mi NNW 10.4 mph - 0.00 in Rain Light Rain
3:54 AM 36.0 °F 28.0 °F 30.0 °F 79% 29.87 in 10.0 mi North 11.5 mph 19.6 mph 0.00 in Snow Light Snow
4:54 AM 36.0 °F 27.5 °F 30.0 °F 79% 29.88 in 10.0 mi NNW 12.7 mph 19.6 mph 0.00 in Rain Light Rain
5:34 AM 36.0 °F 25.0 °F 30.0 °F 79% 29.87 in 10.0 mi NNW 20.7 mph - 0.02 in Rain Light Rain
5:54 AM 37.0 °F 27.0 °F 28.9 °F 73% 29.90 in 10.0 mi NNW 18.4 mph 29.9 mph 0.02 in   Mostly Cloudy
6:04 AM 37.0 °F 27.7 °F 28.9 °F 73% 29.88 in 10.0 mi NNW 16.1 mph 26.5 mph N/A   Mostly Cloudy
6:42 AM 37.0 °F 26.2 °F 28.9 °F 73% 29.89 in 10.0 mi NNW 21.9 mph - N/A   Scattered Clouds
6:54 AM 37.0 °F 27.4 °F 28.9 °F 73% 29.92 in 10.0 mi NNW 17.3 mph - N/A   Mostly Cloudy
7:01 AM 37.0 °F 26.7 °F 28.9 °F 73% 29.90 in 10.0 mi NNW 19.6 mph - N/A   Scattered Clouds
7:16 AM 37.0 °F 27.7 °F 28.9 °F 73% 29.91 in 10.0 mi NNW 16.1 mph 24.2 mph N/A   Mostly Cloudy
7:54 AM 39.0 °F 29.3 °F 30.0 °F 70% 29.95 in 10.0 mi NNW 19.6 mph - N/A   Mostly Cloudy
8:46 AM 41.0 °F 31.9 °F 30.9 °F 67% 29.95 in 10.0 mi NNW 19.6 mph 28.8 mph N/A   Scattered Clouds
8:54 AM 41.0 °F 30.9 °F 30.0 °F 65% 29.97 in 10.0 mi NNW 24.2 mph 31.1 mph N/A   Partly Cloudy
9:54 AM 43.0 °F 33.1 °F 30.9 °F 62% 30.00 in 10.0 mi NNW 26.5 mph 33.4 mph N/A   Clear
10:54 AM 46.9 °F - 32.0 °F 56% 30.01 in 10.0 mi NNW 20.7 mph 27.6 mph N/A   Clear
11:54 AM 50.0 °F - 32.0 °F 50% 30.01 in 10.0 mi North 25.3 mph 35.7 mph N/A   Clear
12:54 PM 52.0 °F - 32.0 °F 47% 30.01 in 10.0 mi North 20.7 mph 28.8 mph N/A   Clear
1:54 PM 55.0 °F - 32.0 °F 42% 30.01 in 10.0 mi NNW 16.1 mph 24.2 mph N/A   Clear
2:54 PM 55.9 °F - 30.9 °F 39% 30.01 in 10.0 mi NNW 17.3 mph 26.5 mph N/A   Clear
3:54 PM 57.9 °F - 28.9 °F 33% 30.00 in 10.0 mi NNW 17.3 mph 26.5 mph N/A   Clear
4:54 PM 59.0 °F - 28.0 °F 31% 29.99 in 10.0 mi North 19.6 mph 28.8 mph N/A   Clear
5:54 PM 60.1 °F - 28.0 °F 30% 30.01 in 10.0 mi NNW 13.8 mph 26.5 mph N/A   Clear
6:54 PM 57.0 °F - 24.1 °F 28% 30.02 in 10.0 mi North 17.3 mph 25.3 mph N/A   Clear
7:54 PM 53.1 °F - 25.0 °F 34% 30.04 in 10.0 mi North 13.8 mph - N/A   Clear
8:54 PM 52.0 °F - 26.1 °F 37% 30.06 in 10.0 mi NNW 18.4 mph 26.5 mph N/A   Clear
9:54 PM 51.1 °F - 26.1 °F 38% 30.10 in 10.0 mi Variable 3.5 mph - N/A   Clear
10:54 PM 46.9 °F - 28.0 °F 48% 30.12 in 10.0 mi North 17.3 mph 21.9 mph N/A   Clear
11:54 PM 45.0 °F 40.1 °F 28.0 °F 52% 30.13 in 10.0 mi North 9.2 mph - N/A   Clear